DECAYED

FENGYUN 1C DEB, 33675 (Decayed)

Orbit data source: Space-Track

FENGYUN 1C DEB, 33675 was space debris in SSO originally from a launch on Mon, 10 May 1999 UTC launched from the Taiyaun Space Center, China (TSC). Fengyun 1C debris stems from the Chinese weather satellite Fengyun-1C, which was intentionally destroyed by a Chinese anti-satellite missile in 2007. This event dramatically increased the amount of space debris, with thousands of trackable fragments posing hazards to satellites and human spaceflight. The Fengyun 1C debris cloud has become a focal point in discussions about space sustainability and the need for international regulations to prevent the creation of new debris.

Not visible in the next 10 days
Identifier
33675, 1999-025DFL
Orbit
Decayed
Country
Flag of CNCN / PRC
Related business
Manufacturer
Unknown
Mission
Decayed spacecraft
Bus & Motor
Unknown
Mass
Unknown
Launch date (UTC)
1999-05-10 (27 years ago)
Launch vehicle
Unknown
Launch site
Taiyaun Space Center, China (TSC)
Object type
Payload
Rocket body
Debris
Shape & HBR
Unknown shape, 0.1 m
Radar Cross Section
Small (<0.1 m²)

Expand to show TLE details & history
Last TLE update: 8 months ago

TLE from 8 months ago
0 FENGYUN 1C DEB
1 33675U 99025DFL 25274.98312130  .00691858  00000-0  15371-1 0  9991
2 33675  99.1335 112.6676 0003554  86.2347 273.9300 15.41350198671401
Epoch: 2025-10-01T23:35Z
TLE epoch observation values (Epoch: 2025-10-01T23:35:41.680Z)
Latitude
-0.00007°
Longitude
107.79363°
Altitude
445.022 km
Speed
7.645 km/s
True Right ascension
07h 30m 40s
True Declination
0° 00' 00"
Sunlit
Object was in daylight at epoch
Visualization orbit readout
Latitude
Unknown
Longitude
Unknown
Altitude
Unknown
Speed
Unknown
Apparent Right ascension
Unknown
Apparent Declination
Unknown
Sunlit
N/A
Visualization observer readout
Local Sidereal Time
08:30:32
Azimuth
Unknown
Elevation
Unknown
Doppler factor
Unknown
Orbital elements
Apogee altitude
441.567 km
Perigee altitude
436.721 km
Semi-major axis
6,817.281 km
Eccentricity
0.00036
Inclination
99.1335°
RAAN
112.6676°
Arg. of periapsis
86.2347°
True anomaly
273.88937°
Mean anomaly
273.93°
Eccentric anomaly
273.90968°
Mean motion
3.85591 °/min
Orbital period
93.36 mins
BSTAR
0.015371
Loading maneuver chart data...
Computing Atmospheric mass density...

Documentation

Showing up to 5 results
|